Monte Terminillo, Italy

1:15 PM CEST on April 22, 2018 (GMT +0200)
Monte Terminillo

Weather History for LIRK - November, 2013

Change the Weather History Date:

Tuesday, November 19, 2013

  Actual Average Record
Temperature  
Mean Temperature 35 °F -  
Max Temperature 38 °F 36 °F 50 °F (2003)
Min Temperature 32 °F 27 °F 10 °F (2005)
Degree Days  
Heating Degree Days 30    
Moisture  
Dew Point 36 °F    
Average Humidity 100    
Maximum Humidity 100    
Minimum Humidity 98    
Precipitation  
Precipitation 0.00 in -13.12 in - ()
Sea Level Pressure  
Sea Level Pressure 29.69 in    
Wind  
Wind Speed 23 mph ()    
Max Wind Speed 37 mph    
Max Gust Speed -    
Visibility 2.1 miles    
Events Fog , Rain , Snow , Thunderstorm    
Averages and records for this station are not official NWS values.
T = Trace of Precipitation, MM = Missing Value Source: Averaged Metar Reports

Daily Weather History Graph

Daily Weather History Graph

Search for Another Location

Airport or City:

Astronomy

Nov. 19, 2013 Rise Set
Actual Time 7:04 AM CET 4:42 PM CET
Civil Twilight 6:33 AM CET 5:13 PM CET
Nautical Twilight 5:59 AM CET 5:47 PM CET
Astronomical Twilight 5:25 AM CET 6:20 PM CET
Moon 6:19 PM CET (11/19) 8:29 AM CET (11/19)
Length of Visible Light 10h 39m
Length of Day
9h 38m
Full, 97% of the Moon is Illuminated
Nov 19
Full
Nov 25
Last Quarter
Dec 3
New
Dec 9
First Quarter
Dec 17
Full

Hourly Weather History & Observations

Time (CET) Temp. Dew Point Humidity Pressure Visibility Wind Dir Wind Speed Gust Speed Precip Events Conditions
12:00 AM 38 °F 38 °F 99%  in 12 mi NE 34.5 mph - -   Mostly Cloudy
12:55 AM 37.4 °F 37.4 °F 100% 29.83 in - North - - N/A   Mostly Cloudy
1:00 AM 38 °F 38 °F 99%  in 12 mi NE 28.8 mph - -  
1:55 AM 37.4 °F 37.4 °F 100% 29.80 in - North - - N/A   Overcast
2:00 AM 38 °F 38 °F 99%  in 9 mi NE 24.2 mph - -   Overcast
2:55 AM 37.4 °F 37.4 °F 100% 29.80 in - North - - N/A Rain Light Rain
3:00 AM 38 °F 38 °F 99%  in 6 mi NE 26.5 mph - - Rain Light Rain
3:55 AM 37.4 °F 37.4 °F 100% 29.80 in 0.0 mi North - - N/A Fog , Rain Light Rain
4:55 AM 37.4 °F 37.4 °F 100% 29.80 in - North - - N/A Fog Fog
5:00 AM 37 °F 37 °F 100%  in 0 mi NE 15.0 mph - - Snow Snow
5:55 AM 35.6 °F 35.6 °F 100% 29.74 in 0.0 mi North - - N/A Fog Fog
6:00 AM 35 °F 35 °F 100%  in 0 mi NE 21.9 mph - - Fog Heavy Fog
6:55 AM 33.8 °F 33.8 °F 100% 29.71 in 0.0 mi North - - N/A Fog Fog
7:00 AM 34 °F 34 °F 100%  in 0 mi NE 21.9 mph - -  
7:55 AM 33.8 °F 33.8 °F 100% 29.71 in - North - - N/A   Mostly Cloudy
8:55 AM 33.8 °F 33.8 °F 100% 29.68 in - North - - N/A   Mostly Cloudy
9:55 AM 33.8 °F 33.8 °F 100% 29.68 in - North - - N/A   Scattered Clouds
11:55 AM 35.6 °F 35.6 °F 100% 29.68 in - North - - N/A   Scattered Clouds
12:00 PM 36 °F 36 °F 100%  in 7 mi NNE 34.5 mph - -   Partly Cloudy
12:55 PM 37.4 °F 37.4 °F 100% 29.65 in 0.0 mi North - - N/A Fog , Rain , Thunderstorm Thunderstorms and Rain
1:00 PM 37 °F 37 °F 98%  in 0 mi NNE 34.5 mph - -  
1:55 PM 37.4 °F 37.4 °F 100% 29.65 in 0.0 mi North - - N/A Fog , Rain Light Rain
2:00 PM 37 °F 37 °F 99%  in 0 mi East 36.8 mph - - Rain Light Rain
2:55 PM 35.6 °F 35.6 °F 100% 29.65 in 0.0 mi North - - N/A Fog , Rain Light Rain
3:00 PM 36 °F 36 °F 100%  in 0 mi West 25.3 mph - - Rain Light Rain
3:55 PM 35.6 °F 35.6 °F 100% 29.65 in 0.0 mi North - - N/A Fog , Rain Light Rain
4:55 PM 35.6 °F 35.6 °F 100% 29.65 in 0.0 mi North - - N/A Fog Fog
5:00 PM 35 °F 35 °F 100%  in 0 mi SW 23.0 mph - - Fog Heavy Fog
5:55 PM 35.6 °F 35.6 °F 100% 29.62 in 0.0 mi North - - N/A Fog Fog
7:55 PM 33.8 °F 33.8 °F 100% 29.62 in - North - - N/A Fog Fog
8:55 PM 33.8 °F 33.8 °F 100% 29.62 in - North - - N/A Fog Fog
9:55 PM 33.8 °F 33.8 °F 100% 29.59 in - North - - N/A Fog Fog
10:55 PM 32.0 °F 32.0 °F 100% 29.59 in - North - - N/A Fog Fog
11:00 PM 33 °F 33 °F 98%  in 0 mi SW 25.3 mph - - Snow Light Snow
11:55 PM 32.0 °F 32.0 °F 100% 29.59 in - North - - N/A Fog Fog